Погода в Сан-Хуан-дель-Рио

Мексика     20°23′17″N   99°59′45″W
темп.,
°C
ветер,
м/с
пор.,
м/с
влажн.,
%
обл.,
%
осадки,
мм/ч
давл.,
гПа
погр.,
м
21 июня, пн
пн2101:00+16юв1292100 33.8 1019187
04:00+16ююв1191100 0.1 101557
07:00+16з1191100 0.1 101626
10:00+20з237299 0.0 1016574
13:00+24зсз335299 1.5 10131293
16:00+26зсз224388 0.1 10092200
19:00+20зюз1270100 1.0 101157
22:00+18с1177100 2.4 101315
22 июня, вт
вт2201:00+17зюз2287100 4.3 101545
04:00+16зсз1193100 1.7 101444
07:00+16зюз1190100 1.7 101417
10:00+19зсз2272100 0.3 1015410
13:00+23с1153100 3.6 10131083
16:00+25ссв2247100 0.0 10101396
19:00+23всв4555100 0.1 1009616
22:00+18св2482100 1.8 101387
23 июня, ср
ср2301:00+17св1185100 4.0 101520
04:00+17св2383100 2.6 101474
07:00+15ссз2295100 6.8 1016130
10:00+16св1187100 1.0 1018335
13:00+20вюв236598 3.3 1016803
16:00+21ююв135699 1.7 1014929
19:00+20вюв237098 2.6 1014336
22:00+17ссв118798 0.9 101660
24 июня, чт
чт2401:00+17всв2386100 1.1 1018145
04:00+16всв1388100 0.2 1017153
07:00+15всв228894 0.3 101763
10:00+19всв34695 0.0 1018743
13:00+23всв56513 0.0 10151613
16:00+25св674340 0.0 10122253
19:00+23всв565374 0.1 1011785
22:00+16в368158 0.8 1015132
25 июня, пт
пт2501:00+16в228967 1.3 101623
04:00+14всв2296100 0.0 101634
07:00+14всв3486100 0.1 1017198
10:00+17в346644 0.0 1017937
13:00+22всв574511 0.0 10131502
16:00+25всв673715 0.0 10092530
19:00+22всв684755 0.0 1009800
22:00+16в357565 0.6 1013125